Weather History for Idaho Falls, ID

Change the Weather History Date:

Friday, September 6, 2013

  Actual Average Record
Temperature  
Mean Temperature 68 °F 61 °F  
Max Temperature 83 °F 79 °F 94 °F (1955)
Min Temperature 53 °F 44 °F 31 °F (2010)
Degree Days  
Heating Degree Days 0 5  
Month to date heating degree days 0 24  
Since 1 July heating degree days 0 89  
Cooling Degree Days 3 1  
Month to date cooling degree days 27 6  
Year to date cooling degree days 487 258  
Growing Degree Days 18 (Base 50)    
Moisture  
Dew Point 52 °F    
Average Humidity 61    
Maximum Humidity 86    
Minimum Humidity 35    
Precipitation  
Precipitation T in 0.02 in 0.52 in (1978)
Month to date precipitation 0.29 0.16  
Year to date precipitation 2.99 7.14  
Sea Level Pressure  
Sea Level Pressure 30.00 in    
Wind  
Wind Speed 8 mph (SW)    
Max Wind Speed 29 mph    
Max Gust Speed 33 mph    
Visibility 10 miles    
Events      
T = Trace of Precipitation, MM = Missing Value Source: NWS Daily Summary

Daily Weather History Graph

Daily Weather History Graph

Search for Another Location

Airport:

Trip Planner

Search our weather history database for the weather conditions in past years. The results will help you decide how hot, cold, wet, or windy it might be!

Date:

Astronomy

Sep. 06, 2013 Rise Set
Actual Time 6:58 AM MDT 7:54 PM MDT
Civil Twilight 6:28 AM MDT 8:23 PM MDT
Nautical Twilight 5:54 AM MDT 8:57 PM MDT
Astronomical Twilight 5:17 AM MDT 9:34 PM MDT
Moon 8:18 AM MDT (9/6) 8:15 PM MDT (9/6)
Length of Visible Light 13h 54m
Length of Day
12h 56m
New Moon, 2% of the Moon is Illuminated
Sep 6
New Moon
Sep 12
First Quarter
Sep 19
Full
Sep 26
Last Quarter
Oct 4
New

Hourly Weather History & Observations

Time (MDT) Temp. Heat Index Dew Point Humidity Pressure Visibility Wind Dir Wind Speed Gust Speed Precip Events Conditions
12:53 AM 60.1 °F - 54.0 °F 80% 29.98 in 10.0 mi North 3.5 mph - N/A   Clear
1:53 AM 57.0 °F - 53.1 °F 87% 29.97 in 10.0 mi North 3.5 mph - N/A   Clear
2:53 AM 57.9 °F - 53.1 °F 84% 29.96 in 10.0 mi NNW 5.8 mph - N/A   Clear
3:53 AM 57.9 °F - 52.0 °F 81% 29.96 in 10.0 mi NNE 3.5 mph - N/A   Clear
4:53 AM 55.9 °F - 52.0 °F 87% 29.97 in 10.0 mi NNW 6.9 mph - N/A   Clear
5:53 AM 55.0 °F - 51.1 °F 86% 29.98 in 10.0 mi North 3.5 mph - N/A   Clear
6:53 AM 57.9 °F - 52.0 °F 81% 30.00 in 10.0 mi Calm Calm - N/A   Clear
7:53 AM 57.9 °F - 53.1 °F 84% 30.03 in 10.0 mi SSW 5.8 mph - N/A   Clear
8:53 AM 68.0 °F - 54.0 °F 61% 30.04 in 10.0 mi SSW 13.8 mph - N/A   Clear
9:53 AM 70.0 °F - 55.9 °F 61% 30.05 in 10.0 mi SW 13.8 mph - N/A   Clear
10:53 AM 73.0 °F - 54.0 °F 51% 30.05 in 10.0 mi SSW 9.2 mph - N/A   Scattered Clouds
11:53 AM 75.0 °F - 54.0 °F 48% 30.04 in 10.0 mi SW 12.7 mph - N/A   Clear
12:53 PM 80.1 °F 80.0 °F 54.0 °F 40% 30.03 in 10.0 mi WSW 10.4 mph - N/A   Mostly Cloudy
1:53 PM 81.0 °F 80.4 °F 53.1 °F 38% 30.00 in 10.0 mi WSW 5.8 mph - N/A   Scattered Clouds
2:53 PM 79.0 °F - 53.1 °F 40% 30.01 in 10.0 mi SSW 16.1 mph - N/A   Clear
3:53 PM 75.9 °F - 51.1 °F 42% 30.02 in 10.0 mi South 10.4 mph - 0.00 in   Mostly Cloudy
4:53 PM 77.0 °F - 48.9 °F 37% 29.99 in 10.0 mi Calm Calm - N/A   Clear
5:53 PM 79.0 °F - 50.0 °F 36% 29.97 in 10.0 mi South 8.1 mph - N/A   Mostly Cloudy
6:53 PM 78.1 °F - 48.9 °F 36% 29.98 in 10.0 mi SSE 6.9 mph - N/A   Clear
7:53 PM 73.9 °F - 51.1 °F 45% 30.01 in 10.0 mi SW 23.0 mph 33.4 mph N/A   Partly Cloudy
8:53 PM 71.1 °F - 48.0 °F 44% 29.99 in 10.0 mi SSE 17.3 mph 28.8 mph 0.00 in   Mostly Cloudy
9:53 PM 70.0 °F - 48.9 °F 47% 30.01 in 10.0 mi Variable 5.8 mph - N/A   Overcast
10:53 PM 68.0 °F - 48.9 °F 50% 30.03 in 10.0 mi ESE 3.5 mph - N/A   Clear
11:53 PM 63.0 °F - 50.0 °F 63% 30.04 in 10.0 mi SSW 6.9 mph - N/A   Clear